This is the latest recevied weather packets stored in our database for station/object KF6YUA. If no packets are shown the sender has not sent any weather packets the latest 10 day(s).
| Time | Temp. | Humidity | Pressure | Rain* | Wind** | Luminosity | Snow |
|---|---|---|---|---|---|---|---|
| 1777989948 | 11.11° C | 99% | 1016.5 hPa | 0 mm | - | 38 W/m² | - |
| 1777989644 | 11.11° C | 99% | 1016.7 hPa | 0 mm | - | 22 W/m² | - |
| 1777989341 | 11.11° C | 99% | 1016.6 hPa | 0 mm | - | 18 W/m² | - |
| 1777989037 | 11.11° C | 99% | 1016.4 hPa | 0 mm | - | 20 W/m² | - |
| 1777988733 | 11.11° C | 99% | 1016.5 hPa | 0 mm | - | 15 W/m² | - |
| 1777988431 | 11.11° C | 99% | 1016.7 hPa | 0 mm | - | 13 W/m² | - |
| 1777988127 | 11.11° C | 99% | 1016.5 hPa | 0 mm | - | 7 W/m² | - |
| 1777987823 | 11.11° C | 99% | 1016.6 hPa | 0 mm | - | 5 W/m² | - |
| 1777987520 | 11.11° C | 99% | 1016.4 hPa | 0 mm | - | 1 W/m² | - |
| 1777987218 | 11.11° C | 99% | 1016.3 hPa | 0 mm | - | 4 W/m² | - |
| 1777986914 | 11.11° C | 99% | 1016.3 hPa | 0 mm | - | 0 W/m² | - |
| 1777986613 | 11.11° C | 99% | 1016.3 hPa | 0 mm | - | 0 W/m² | - |
| 1777986310 | 11.11° C | 99% | 1016.1 hPa | 0 mm | - | 0 W/m² | - |
| 1777986009 | 11.11° C | 99% | 1016.4 hPa | 0 mm | - | 0 W/m² | - |
| 1777985705 | 11.11° C | 99% | 1016.2 hPa | 0 mm | - | 0 W/m² | - |
| 1777985401 | 11.11° C | 99% | 1016.1 hPa | 0 mm | - | 0 W/m² | - |
| 1777985098 | 11.11° C | 99% | 1016.3 hPa | 0 mm | - | 0 W/m² | - |
| 1777984794 | 11.11° C | 99% | 1016 hPa | 0 mm | - | 0 W/m² | - |
| 1777984491 | 11.11° C | 99% | 1016.1 hPa | 0 mm | - | 0 W/m² | - |
| 1777984187 | 11.11° C | 99% | 1016 hPa | 0 mm | - | 0 W/m² | - |
| 1777983884 | 11.11° C | 99% | 1016.2 hPa | 0 mm | - | 0 W/m² | - |
| 1777983581 | 11.11° C | 99% | 1016.1 hPa | 0 mm | - | 0 W/m² | - |
| 1777983278 | 11.11° C | 99% | 1016.2 hPa | 0 mm | - | 0 W/m² | - |
| 1777982973 | 11.11° C | 99% | 1016.2 hPa | 0 mm | - | 0 W/m² | - |
| 1777982670 | 11.11° C | 99% | 1016.3 hPa | 0 mm | - | 0 W/m² | - |
* Rain latest hour (hover to see other rain measurements)
** Current wind speed in m/s (hover to see current wind gust speed)